GW4115 Weather Reports


time (UTC)temp
F
wind
direction
speed
knots
gust
knots
rain 1hr
in
rain 24hr
in
rain mn
in
humidity
%
barometer
mb
20260906164512 96 34 1.7 4.3 0.00 0.00 0.00 49 1016.7
20260906163030 95 91 0.0 3.5 0.00 0.00 0.00 52 1016.7
20260906161531 95 144 0.9 2.6 0.00 0.00 0.00 51 1016.8
20260906160029 94 360 1.7 3.5 0.00 0.00 0.00 52 1016.8
20260906154538 92 71 0.9 2.6 0.00 0.00 0.00 51 1016.7
20260906153022 91 41 0.0 0.0 0.00 0.00 0.00 54 1016.6
20260906151515 90 122 0.0 0.0 0.00 0.00 0.00 56 1016.5
20260906150028 90 40 0.0 0.0 0.00 0.00 0.00 57 1016.6
20260906144518 87 77 0.0 0.0 0.00 0.00 0.00 62 1016.5
20260906143032 85 64 0.0 0.0 0.00 0.00 0.00 65 1016.5
20260906141525 84 15 0.0 0.0 0.00 0.00 0.00 68 1016.5
20260906140039 81 68 0.0 1.7 0.00 0.00 0.00 74 1016.4
20260906134529 79 66 0.0 0.0 0.00 0.00 0.00 77 1016.3
20260906133020 77 191 0.0 0.0 0.00 0.00 0.00 79 1016.2
20260906131508 76 191 0.0 0.0 0.00 0.00 0.00 81 1016.1
20260906130020 75 191 0.0 0.0 0.00 0.00 0.00 84 1016.1
20260906124504 72 191 0.0 0.0 0.00 0.00 0.00 91 1015.9
20260906123010 69 191 0.0 0.0 0.00 0.00 0.00 91 1015.7
20260906121523 68 191 0.0 0.0 0.00 0.00 0.00 90 1015.5
20260906120004 68 191 0.0 0.0 0.00 0.00 0.00 90 1015.4
20260906114508 68 191 0.0 0.0 0.00 0.00 0.00 89 1015.2
20260906113011 68 191 0.0 0.0 0.00 0.00 0.00 88 1015.1
20260906111523 69 191 0.0 0.0 0.00 0.00 0.00 88 1015.0
20260906110012 69 191 0.0 0.0 0.00 0.00 0.00 88 1014.9
20260906104513 69 191 0.0 0.0 0.00 0.00 0.00 88 1014.9
20260906103012 69 191 0.0 0.0 0.00 0.00 0.00 88 1014.8
20260906101524 70 191 0.0 0.0 0.00 0.00 0.00 88 1014.8
20260906100019 70 191 0.0 0.0 0.00 0.00 0.00 87 1014.9
20260906094534 70 191 0.0 0.0 0.00 0.00 0.00 87 1014.9
20260906093012 71 191 0.0 0.0 0.00 0.00 0.00 86 1014.7
20260906091531 71 191 0.0 0.0 0.00 0.00 0.00 85 1014.7
20260906090021 71 191 0.0 0.0 0.00 0.00 0.00 84 1014.5
20260906084529 71 191 0.0 0.0 0.00 0.00 0.00 84 1014.4
20260906083025 72 191 0.0 0.0 0.00 0.00 0.00 84 1014.4
20260906081530 72 191 0.0 0.0 0.00 0.00 0.00 83 1014.4
20260906080014 72 191 0.0 0.0 0.00 0.00 0.00 82 1014.4
20260906074526 72 191 0.0 0.0 0.00 0.00 0.00 81 1014.3
20260906073033 73 191 0.0 0.0 0.00 0.00 0.00 82 1014.4
20260906071505 73 191 0.0 0.0 0.00 0.00 0.00 81 1014.5
20260906070008 73 191 0.0 0.0 0.00 0.00 0.00 81 1014.6
20260906064504 74 191 0.0 0.0 0.00 0.00 0.00 80 1014.7
20260906063003 74 191 0.0 0.0 0.00 0.00 0.00 79 1014.7
20260906061509 74 191 0.0 0.0 0.00 0.00 0.00 80 1014.6
20260906060012 75 191 0.0 0.0 0.00 0.00 0.00 79 1014.6
20260906054509 75 191 0.0 0.0 0.00 0.00 0.00 78 1014.7
20260906053008 75 191 0.0 0.0 0.00 0.00 0.00 78 1014.5
20260906051505 76 191 0.0 0.0 0.00 0.00 0.00 77 1014.5
20260906050033 76 191 0.0 0.0 0.00 0.00 0.00 75 1014.5
20260906044515 77 191 0.0 0.0 0.00 0.00 0.00 74 1014.4
20260906043016 77 191 0.0 0.0 0.00 0.00 0.00 72 1014.6
20260906041506 78 191 0.0 0.0 0.00 0.00 0.00 71 1014.6
20260906040011 78 191 0.0 0.0 0.00 0.00 0.00 70 1014.5
20260906034508 79 191 0.0 0.0 0.00 0.00 0.00 69 1014.7
20260906033025 79 191 0.0 0.0 0.00 0.00 0.00 69 1014.5
20260906031529 80 191 0.0 0.0 0.00 0.00 0.00 67 1014.4
20260906030006 81 191 0.0 0.0 0.00 0.00 0.00 66 1014.4
20260906024514 82 175 0.0 0.0 0.00 0.00 0.00 64 1014.3
20260906023013 83 175 0.0 0.0 0.00 0.00 0.00 63 1014.3
20260906021508 84 177 0.0 0.0 0.00 0.00 0.00 61 1014.2
20260906020031 85 32 0.0 0.0 0.00 0.00 0.00 58 1013.8
20260906014511 85 32 0.0 1.7 0.00 0.00 0.00 57 1013.6
20260906013015 86 5 0.9 1.7 0.00 0.00 0.00 57 1013.7
20260906011524 87 32 0.0 0.0 0.00 0.00 0.00 56 1013.5
20260906010018 88 49 0.0 1.7 0.00 0.00 0.00 53 1013.3
20260906004516 89 53 0.0 1.7 0.00 0.00 0.00 51 1013.2
20260906003009 90 22 0.9 3.5 0.00 0.00 0.00 50 1013.2
20260906001516 93 352 0.0 0.0 0.00 0.00 0.00 46 1013.1
20260906000031 95 352 0.0 0.0 0.00 0.00 0.00 43 1013.2
20260905234528 96 294 0.0 0.0 0.00 0.00 0.00 42 1013.1
20260905233027 97 294 0.0 0.0 0.00 0.00 0.00 40 1013.1
20260905231515 98 294 0.0 1.7 0.00 0.00 0.00 36 1013.2
20260905230015 99 294 0.0 1.7 0.00 0.00 0.00 36 1013.2
20260905224527 99 294 0.0 2.6 0.00 0.00 0.00 36 1013.0
20260905223035 99 13 1.7 2.6 0.00 0.00 0.00 36 1013.1
20260905221507 99 71 0.9 1.7 0.00 0.00 0.00 36 1013.2
20260905220005 99 88 0.0 1.7 0.00 0.00 0.00 37 1013.3
20260905214523 99 49 0.9 1.7 0.00 0.00 0.00 35 1013.3
20260905213008 100 107 0.0 1.7 0.00 0.00 0.00 38 1013.4
20260905211508 98 335 0.9 2.6 0.00 0.00 0.00 37 1013.6
20260905210009 98 60 0.0 4.3 0.00 0.00 0.00 37 1014.0
20260905204510 98 74 0.9 3.5 0.00 0.00 0.00 38 1014.0
20260905203004 99 27 1.7 5.2 0.00 0.00 0.00 40 1014.2
20260905201508 98 291 2.6 4.3 0.00 0.00 0.00 38 1014.4
20260905200014 98 55 0.9 7.0 0.00 0.00 0.00 40 1014.7
20260905194519 98 5 2.6 4.3 0.00 0.00 0.00 43 1014.9
20260905193026 97 142 0.0 7.8 0.00 0.00 0.00 42 1015.0
20260905191506 98 70 0.9 6.1 0.00 0.00 0.00 40 1015.2
20260905190013 98 295 1.7 9.6 0.00 0.00 0.00 43 1015.4
20260905184521 97 284 0.9 7.0 0.00 0.00 0.00 44 1015.7
20260905183028 97 321 3.5 6.1 0.00 0.00 0.00 42 1015.8
20260905181523 96 78 3.5 10.4 0.00 0.00 0.00 44 1016.1
20260905180008 97 275 0.9 4.3 0.00 0.00 0.00 43 1016.3
20260905174527 96 155 1.7 5.2 0.00 0.00 0.00 44 1016.5
20260905173009 96 360 3.5 6.1 0.00 0.00 0.00 47 1016.7
20260905171527 96 327 1.7 5.2 0.00 0.00 0.00 48 1017.0
20260905170031 95 206 0.9 3.5 0.00 0.00 0.00 48 1017.0